Year,Month,Day,Hour,Minute,Value (Times are PST for temperature in C)
2011,07,24,00,00,13.50
2011,07,24,00,01,13.50
2011,07,24,00,02,13.40
2011,07,24,00,03,13.40
2011,07,24,00,04,13.40
2011,07,24,00,05,13.40
2011,07,24,00,06,13.40
2011,07,24,00,07,13.40
2011,07,24,00,08,13.30
2011,07,24,00,09,13.30
2011,07,24,00,10,13.30
2011,07,24,00,11,13.30
2011,07,24,00,12,13.30
2011,07,24,00,13,13.20
2011,07,24,00,14,13.20
2011,07,24,00,15,13.20
2011,07,24,00,16,13.20
2011,07,24,00,17,13.20
2011,07,24,00,18,13.20
2011,07,24,00,19,13.20
2011,07,24,00,20,13.20
2011,07,24,00,21,13.20
2011,07,24,00,22,13.20
2011,07,24,00,23,13.20
2011,07,24,00,24,13.10
2011,07,24,00,25,13.10
2011,07,24,00,26,13.10
2011,07,24,00,27,13.10
2011,07,24,00,28,13.10
2011,07,24,00,29,13.10
2011,07,24,00,30,13.10
2011,07,24,00,31,13.10
2011,07,24,00,32,13.10
2011,07,24,00,33,13.10
2011,07,24,00,34,13.10
2011,07,24,00,35,13.00
2011,07,24,00,36,13.00
2011,07,24,00,37,13.00
2011,07,24,00,38,13.00
2011,07,24,00,39,13.00
2011,07,24,00,40,12.90
2011,07,24,00,41,12.90
2011,07,24,00,42,12.90
2011,07,24,00,43,12.90
2011,07,24,00,44,12.90
2011,07,24,00,45,12.90
2011,07,24,00,46,12.90
2011,07,24,00,47,12.90
2011,07,24,00,48,12.90
2011,07,24,00,49,12.90
2011,07,24,00,50,12.90
2011,07,24,00,51,12.90
2011,07,24,00,52,12.90
2011,07,24,00,53,12.90
2011,07,24,00,54,12.90
2011,07,24,00,55,12.90
2011,07,24,00,56,12.90
2011,07,24,00,57,12.90
2011,07,24,00,58,12.90
2011,07,24,00,59,12.90
2011,07,24,01,00,12.90
2011,07,24,01,01,12.90
2011,07,24,01,02,12.90
2011,07,24,01,03,12.90
2011,07,24,01,04,12.90
2011,07,24,01,05,12.90
2011,07,24,01,06,12.90
2011,07,24,01,07,12.90
2011,07,24,01,08,12.90
2011,07,24,01,09,12.90
2011,07,24,01,10,12.90
2011,07,24,01,11,12.90
2011,07,24,01,12,12.80
2011,07,24,01,13,12.80
2011,07,24,01,14,12.80
2011,07,24,01,15,12.80
2011,07,24,01,16,12.80
2011,07,24,01,17,12.80
2011,07,24,01,18,12.70
2011,07,24,01,19,12.70
2011,07,24,01,20,12.70
2011,07,24,01,21,12.70
2011,07,24,01,22,12.60
2011,07,24,01,23,12.60
2011,07,24,01,24,12.50
2011,07,24,01,25,12.50
2011,07,24,01,26,12.50
2011,07,24,01,27,12.40
2011,07,24,01,28,12.40
2011,07,24,01,29,12.40
2011,07,24,01,30,12.40
2011,07,24,01,31,12.40
2011,07,24,01,32,12.40
2011,07,24,01,33,12.40
2011,07,24,01,34,12.40
2011,07,24,01,35,12.40
2011,07,24,01,36,12.40
2011,07,24,01,37,12.40
2011,07,24,01,38,12.40
2011,07,24,01,39,12.40
2011,07,24,01,40,12.50
2011,07,24,01,41,12.50
2011,07,24,01,42,12.50
2011,07,24,01,43,12.50
2011,07,24,01,44,12.50
2011,07,24,01,45,12.50
2011,07,24,01,46,12.50
2011,07,24,01,47,12.50
2011,07,24,01,48,12.40
2011,07,24,01,49,12.40
2011,07,24,01,50,12.40
2011,07,24,01,51,12.40
2011,07,24,01,52,12.40
2011,07,24,01,53,12.40
2011,07,24,01,54,12.40
2011,07,24,01,55,12.40
2011,07,24,01,56,12.40
2011,07,24,01,57,12.40
2011,07,24,01,58,12.40
2011,07,24,01,59,12.40
2011,07,24,02,00,12.30
2011,07,24,02,01,12.30
2011,07,24,02,02,12.30
2011,07,24,02,03,12.30
2011,07,24,02,04,12.30
2011,07,24,02,05,12.30
2011,07,24,02,06,12.30
2011,07,24,02,07,12.30
2011,07,24,02,08,12.30
2011,07,24,02,09,12.20
2011,07,24,02,10,12.20
2011,07,24,02,11,12.20
2011,07,24,02,12,12.20
2011,07,24,02,13,12.20
2011,07,24,02,14,12.20
2011,07,24,02,15,12.20
2011,07,24,02,16,12.10
2011,07,24,02,17,12.10
2011,07,24,02,18,12.10
2011,07,24,02,19,12.10
2011,07,24,02,20,12.10
2011,07,24,02,21,12.10
2011,07,24,02,22,12.10
2011,07,24,02,23,12.10
2011,07,24,02,24,12.00
2011,07,24,02,25,12.00
2011,07,24,02,26,12.00
2011,07,24,02,27,12.00
2011,07,24,02,28,12.00
2011,07,24,02,29,11.90
2011,07,24,02,30,11.90
2011,07,24,02,31,11.90
2011,07,24,02,32,11.90
2011,07,24,02,33,11.90
2011,07,24,02,34,11.90
2011,07,24,02,35,11.90
2011,07,24,02,36,11.80
2011,07,24,02,37,11.80
2011,07,24,02,38,11.80
2011,07,24,02,39,11.80
2011,07,24,02,40,11.80
2011,07,24,02,41,11.80
2011,07,24,02,42,11.80
2011,07,24,02,43,11.80
2011,07,24,02,44,11.80
2011,07,24,02,45,11.80
2011,07,24,02,46,11.80
2011,07,24,02,47,11.80
2011,07,24,02,48,11.80
2011,07,24,02,49,11.80
2011,07,24,02,50,11.80
2011,07,24,02,51,11.80
2011,07,24,02,52,11.80
2011,07,24,02,53,11.70
2011,07,24,02,54,11.70
2011,07,24,02,55,11.70
2011,07,24,02,56,11.70
2011,07,24,02,57,11.70
2011,07,24,02,58,11.70
2011,07,24,02,59,11.70
2011,07,24,03,00,11.70
2011,07,24,03,01,11.70
2011,07,24,03,02,11.60
2011,07,24,03,03,11.60
2011,07,24,03,04,11.60
2011,07,24,03,05,11.60
2011,07,24,03,06,11.60
2011,07,24,03,07,11.50
2011,07,24,03,08,11.50
2011,07,24,03,09,11.50
2011,07,24,03,10,11.50
2011,07,24,03,11,11.40
2011,07,24,03,12,11.40
2011,07,24,03,13,11.40
2011,07,24,03,14,11.40
2011,07,24,03,15,11.40
2011,07,24,03,16,11.40
2011,07,24,03,17,11.40
2011,07,24,03,18,11.40
2011,07,24,03,19,11.40
2011,07,24,03,20,11.40
2011,07,24,03,21,11.40
2011,07,24,03,22,11.40
2011,07,24,03,23,11.40
2011,07,24,03,24,11.40
2011,07,24,03,25,11.40
2011,07,24,03,26,11.40
2011,07,24,03,27,11.40
2011,07,24,03,28,11.50
2011,07,24,03,29,11.50
2011,07,24,03,30,11.50
2011,07,24,03,31,11.50
2011,07,24,03,32,11.50
2011,07,24,03,33,11.50
2011,07,24,03,34,11.40
2011,07,24,03,35,11.40
2011,07,24,03,36,11.40
2011,07,24,03,37,11.40
2011,07,24,03,38,11.40
2011,07,24,03,39,11.40
2011,07,24,03,40,11.40
2011,07,24,03,41,11.30
2011,07,24,03,42,11.30
2011,07,24,03,43,11.30
2011,07,24,03,44,11.30
2011,07,24,03,45,11.30
2011,07,24,03,46,11.30
2011,07,24,03,47,11.30
2011,07,24,03,48,11.30
2011,07,24,03,49,11.30
2011,07,24,03,50,11.30
2011,07,24,03,51,11.30
2011,07,24,03,52,11.30
2011,07,24,03,53,11.30
2011,07,24,03,54,11.30
2011,07,24,03,55,11.30
2011,07,24,03,56,11.30
2011,07,24,03,57,11.30
2011,07,24,03,58,11.30
2011,07,24,03,59,11.30
2011,07,24,04,00,11.30
2011,07,24,04,01,11.30
2011,07,24,04,02,11.30
2011,07,24,04,03,11.30
2011,07,24,04,04,11.30
2011,07,24,04,05,11.30
2011,07,24,04,06,11.30
2011,07,24,04,07,11.30
2011,07,24,04,08,11.30
2011,07,24,04,09,11.20
2011,07,24,04,10,11.20
2011,07,24,04,11,11.20
2011,07,24,04,12,11.20
2011,07,24,04,13,11.20
2011,07,24,04,14,11.20
2011,07,24,04,15,11.20
2011,07,24,04,16,11.20
2011,07,24,04,17,11.20
2011,07,24,04,18,11.20
2011,07,24,04,19,11.20
2011,07,24,04,20,11.20
2011,07,24,04,21,11.20
2011,07,24,04,22,11.20
2011,07,24,04,23,11.20
2011,07,24,04,24,11.20
2011,07,24,04,25,11.20
2011,07,24,04,26,11.20
2011,07,24,04,27,11.20
2011,07,24,04,28,11.20
2011,07,24,04,29,11.30
2011,07,24,04,30,11.30
2011,07,24,04,31,11.30
2011,07,24,04,32,11.30
2011,07,24,04,33,11.20
2011,07,24,04,34,11.30
2011,07,24,04,35,11.20
2011,07,24,04,36,11.20
2011,07,24,04,37,11.20
2011,07,24,04,38,11.20
2011,07,24,04,39,11.20
2011,07,24,04,40,11.20
2011,07,24,04,41,11.20
2011,07,24,04,42,11.20
2011,07,24,04,43,11.20
2011,07,24,04,44,11.10
2011,07,24,04,45,11.10
2011,07,24,04,46,11.10
2011,07,24,04,47,11.10
2011,07,24,04,48,11.10
2011,07,24,04,49,11.10
2011,07,24,04,50,11.20
2011,07,24,04,51,11.20
2011,07,24,04,52,11.20
2011,07,24,04,53,11.10
2011,07,24,04,54,11.10
2011,07,24,04,55,11.10
2011,07,24,04,56,11.10
2011,07,24,04,57,11.10
2011,07,24,04,58,11.10
2011,07,24,04,59,11.10
2011,07,24,05,00,11.10
2011,07,24,05,01,11.10
2011,07,24,05,02,11.00
2011,07,24,05,03,11.00
2011,07,24,05,04,11.00
2011,07,24,05,05,11.00
2011,07,24,05,06,11.00
2011,07,24,05,07,11.00
2011,07,24,05,08,10.90
2011,07,24,05,09,10.90
2011,07,24,05,10,10.90
2011,07,24,05,11,10.90
2011,07,24,05,12,10.90
2011,07,24,05,13,10.90
2011,07,24,05,14,10.90
2011,07,24,05,15,10.90
2011,07,24,05,16,10.80
2011,07,24,05,17,10.80
2011,07,24,05,18,10.80
2011,07,24,05,19,10.80
2011,07,24,05,20,10.80
2011,07,24,05,21,10.80
2011,07,24,05,22,10.80
2011,07,24,05,23,10.80
2011,07,24,05,24,10.80
2011,07,24,05,25,10.80
2011,07,24,05,26,10.80
2011,07,24,05,27,10.80
2011,07,24,05,28,10.80
2011,07,24,05,29,10.70
2011,07,24,05,30,10.70
2011,07,24,05,31,10.70
2011,07,24,05,32,10.70
2011,07,24,05,33,10.70
2011,07,24,05,34,10.70
2011,07,24,05,35,10.70
2011,07,24,05,36,10.70
2011,07,24,05,37,10.70
2011,07,24,05,38,10.70
2011,07,24,05,39,10.70
2011,07,24,05,40,10.60
2011,07,24,05,41,10.60
2011,07,24,05,42,10.60
2011,07,24,05,43,10.60
2011,07,24,05,44,10.60
2011,07,24,05,45,10.60
2011,07,24,05,46,10.60
2011,07,24,05,47,10.60
2011,07,24,05,48,10.60
2011,07,24,05,49,10.60
2011,07,24,05,50,10.50
2011,07,24,05,51,10.50
2011,07,24,05,52,10.50
2011,07,24,05,53,10.50
2011,07,24,05,54,10.50
2011,07,24,05,55,10.60
2011,07,24,05,56,10.60
2011,07,24,05,57,10.60
2011,07,24,05,58,10.60
2011,07,24,05,59,10.60
2011,07,24,06,00,10.60
2011,07,24,06,01,10.60
2011,07,24,06,02,10.60
2011,07,24,06,03,10.70
2011,07,24,06,04,10.70
2011,07,24,06,05,10.70
2011,07,24,06,06,10.70
2011,07,24,06,07,10.70
2011,07,24,06,08,10.70
2011,07,24,06,09,10.70
2011,07,24,06,10,10.70
2011,07,24,06,11,10.70
2011,07,24,06,12,10.70
2011,07,24,06,13,10.70
2011,07,24,06,14,10.70
2011,07,24,06,15,10.70
2011,07,24,06,16,10.70
2011,07,24,06,17,10.70
2011,07,24,06,18,10.70
2011,07,24,06,19,10.70
2011,07,24,06,20,10.80
2011,07,24,06,21,10.80
2011,07,24,06,22,10.70
2011,07,24,06,23,10.70
2011,07,24,06,24,10.70
2011,07,24,06,25,10.70
2011,07,24,06,26,10.80
2011,07,24,06,27,10.80
2011,07,24,06,28,10.80
2011,07,24,06,29,10.80
2011,07,24,06,30,10.80
2011,07,24,06,31,10.80
2011,07,24,06,32,10.80
2011,07,24,06,33,10.80
2011,07,24,06,34,10.80
2011,07,24,06,35,10.80
2011,07,24,06,36,10.80
2011,07,24,06,37,10.80
2011,07,24,06,38,10.80
2011,07,24,06,39,10.80
2011,07,24,06,40,10.80
2011,07,24,06,41,10.80
2011,07,24,06,42,10.80
2011,07,24,06,43,10.80
2011,07,24,06,44,10.80
2011,07,24,06,45,10.90
2011,07,24,06,46,10.90
2011,07,24,06,47,10.90
2011,07,24,06,48,10.90
2011,07,24,06,49,11.00
2011,07,24,06,50,11.00
2011,07,24,06,51,11.10
2011,07,24,06,52,11.10
2011,07,24,06,53,11.10
2011,07,24,06,54,11.20
2011,07,24,06,55,11.20
2011,07,24,06,56,11.20
2011,07,24,06,57,11.20
2011,07,24,06,58,11.30
2011,07,24,06,59,11.30
2011,07,24,07,00,11.30
2011,07,24,07,01,11.30
2011,07,24,07,02,11.40
2011,07,24,07,03,11.40
2011,07,24,07,04,11.50
2011,07,24,07,05,11.50
2011,07,24,07,06,11.60
2011,07,24,07,07,11.60
2011,07,24,07,08,11.60
2011,07,24,07,09,11.70
2011,07,24,07,10,11.70
2011,07,24,07,11,11.70
2011,07,24,07,12,11.70
2011,07,24,07,13,11.70
2011,07,24,07,14,11.80
2011,07,24,07,15,11.80
2011,07,24,07,16,11.80
2011,07,24,07,17,11.90
2011,07,24,07,18,11.90
2011,07,24,07,19,11.90
2011,07,24,07,20,12.00
2011,07,24,07,21,12.00
2011,07,24,07,22,12.00
2011,07,24,07,23,12.10
2011,07,24,07,24,12.10
2011,07,24,07,25,12.10
2011,07,24,07,26,12.10
2011,07,24,07,27,12.10
2011,07,24,07,28,12.20
2011,07,24,07,29,12.20
2011,07,24,07,30,12.20
2011,07,24,07,31,12.20
2011,07,24,07,32,12.30
2011,07,24,07,33,12.30
2011,07,24,07,34,12.30
2011,07,24,07,35,12.40
2011,07,24,07,36,12.40
2011,07,24,07,37,12.50
2011,07,24,07,38,12.50
2011,07,24,07,39,12.60
2011,07,24,07,40,12.60
2011,07,24,07,41,12.60
2011,07,24,07,42,12.70
2011,07,24,07,43,12.70
2011,07,24,07,44,12.80
2011,07,24,07,45,12.80
2011,07,24,07,46,12.90
2011,07,24,07,47,12.90
2011,07,24,07,48,13.00
2011,07,24,07,49,13.00
2011,07,24,07,50,13.10
2011,07,24,07,51,13.20
2011,07,24,07,52,13.20
2011,07,24,07,53,13.30
2011,07,24,07,54,13.30
2011,07,24,07,55,13.40
2011,07,24,07,56,13.40
2011,07,24,07,57,13.50
2011,07,24,07,58,13.50
2011,07,24,07,59,13.60
2011,07,24,08,00,13.70
2011,07,24,08,01,13.70
2011,07,24,08,02,13.80
2011,07,24,08,03,13.80
2011,07,24,08,04,13.90
2011,07,24,08,05,13.90
2011,07,24,08,06,14.00
2011,07,24,08,07,14.10
2011,07,24,08,08,14.10
2011,07,24,08,09,14.20
2011,07,24,08,10,14.20
2011,07,24,08,11,14.30
2011,07,24,08,12,14.30
2011,07,24,08,13,14.40
2011,07,24,08,14,14.40
2011,07,24,08,15,14.50
2011,07,24,08,16,14.50
2011,07,24,08,17,14.60
2011,07,24,08,18,14.60
2011,07,24,08,19,14.70
2011,07,24,08,20,14.70
2011,07,24,08,21,14.80
2011,07,24,08,22,14.80
2011,07,24,08,23,14.90
2011,07,24,08,24,15.00
2011,07,24,08,25,15.00
2011,07,24,08,26,15.00
2011,07,24,08,27,15.00
2011,07,24,08,28,15.20
2011,07,24,08,29,15.30
2011,07,24,08,30,15.40
2011,07,24,08,31,15.40
2011,07,24,08,32,15.50
2011,07,24,08,33,15.60
2011,07,24,08,34,15.70
2011,07,24,08,35,15.70
2011,07,24,08,36,15.80
2011,07,24,08,37,15.90
2011,07,24,08,38,16.00
2011,07,24,08,39,16.00
2011,07,24,08,40,16.10
2011,07,24,08,41,16.20
2011,07,24,08,42,16.30
2011,07,24,08,43,16.40
2011,07,24,08,44,16.50
2011,07,24,08,45,16.60
2011,07,24,08,46,16.70
2011,07,24,08,47,16.80
2011,07,24,08,48,16.80
2011,07,24,08,49,16.90
2011,07,24,08,50,17.00
2011,07,24,08,51,17.10
2011,07,24,08,52,17.20
2011,07,24,08,53,17.30
2011,07,24,08,54,17.30
2011,07,24,08,55,17.30
2011,07,24,08,56,17.40
2011,07,24,08,57,17.50
2011,07,24,08,58,17.50
2011,07,24,08,59,17.60
2011,07,24,09,00,17.60
2011,07,24,09,01,17.70
2011,07,24,09,02,17.70
2011,07,24,09,03,17.70
2011,07,24,09,04,17.80
2011,07,24,09,05,17.80
2011,07,24,09,06,17.90
2011,07,24,09,07,18.00
2011,07,24,09,08,18.10
2011,07,24,09,09,18.10
2011,07,24,09,10,18.20
2011,07,24,09,11,18.20
2011,07,24,09,12,18.30
2011,07,24,09,13,18.40
2011,07,24,09,14,18.50
2011,07,24,09,15,18.50
2011,07,24,09,16,18.60
2011,07,24,09,17,18.70
2011,07,24,09,18,18.80
2011,07,24,09,19,18.80
2011,07,24,09,20,18.90
2011,07,24,09,21,18.90
2011,07,24,09,22,18.90
2011,07,24,09,23,19.00
2011,07,24,09,24,19.10
2011,07,24,09,25,19.10
2011,07,24,09,26,19.20
2011,07,24,09,27,19.20
2011,07,24,09,28,19.30
2011,07,24,09,29,19.40
2011,07,24,09,30,19.40
2011,07,24,09,31,19.40
2011,07,24,09,32,19.40
2011,07,24,09,33,19.50
2011,07,24,09,34,19.50
2011,07,24,09,35,19.50
2011,07,24,09,36,19.60
2011,07,24,09,37,19.60
2011,07,24,09,38,19.60
2011,07,24,09,39,19.60
2011,07,24,09,40,19.60
2011,07,24,09,41,19.70
2011,07,24,09,42,19.70
2011,07,24,09,43,19.70
2011,07,24,09,44,19.70
2011,07,24,09,45,19.70
2011,07,24,09,46,19.80
2011,07,24,09,47,19.80
2011,07,24,09,48,19.90
2011,07,24,09,49,19.90
2011,07,24,09,50,20.00
2011,07,24,09,51,20.00
2011,07,24,09,52,20.10
2011,07,24,09,53,20.10
2011,07,24,09,54,20.10
2011,07,24,09,55,20.10
2011,07,24,09,56,20.20
2011,07,24,09,57,20.20
2011,07,24,09,58,20.20
2011,07,24,09,59,20.20
2011,07,24,10,00,20.30
2011,07,24,10,01,20.30
2011,07,24,10,02,20.30
2011,07,24,10,03,20.30
2011,07,24,10,04,20.30
2011,07,24,10,05,20.20
2011,07,24,10,06,20.30
2011,07,24,10,07,20.30
2011,07,24,10,08,20.40
2011,07,24,10,09,20.40
2011,07,24,10,10,20.50
2011,07,24,10,11,20.60
2011,07,24,10,12,20.60
2011,07,24,10,13,20.70
2011,07,24,10,14,20.80
2011,07,24,10,15,20.90
2011,07,24,10,16,20.90
2011,07,24,10,17,21.00
2011,07,24,10,18,21.10
2011,07,24,10,19,21.10
2011,07,24,10,20,21.10
2011,07,24,10,21,21.20
2011,07,24,10,22,21.20
2011,07,24,10,23,21.20
2011,07,24,10,24,21.30
2011,07,24,10,25,21.30
2011,07,24,10,26,21.30
2011,07,24,10,27,21.20
2011,07,24,10,28,21.20
2011,07,24,10,29,21.20
2011,07,24,10,30,21.20
2011,07,24,10,31,21.30
2011,07,24,10,32,21.20
2011,07,24,10,33,21.20
2011,07,24,10,34,21.20
2011,07,24,10,35,21.20
2011,07,24,10,36,21.20
2011,07,24,10,37,21.20
2011,07,24,10,38,21.30
2011,07,24,10,39,21.30
2011,07,24,10,40,21.40
2011,07,24,10,41,21.40
2011,07,24,10,42,21.40
2011,07,24,10,43,21.40
2011,07,24,10,44,21.40
2011,07,24,10,45,21.40
2011,07,24,10,46,21.40
2011,07,24,10,47,21.40
2011,07,24,10,48,21.40
2011,07,24,10,49,21.50
2011,07,24,10,50,21.50
2011,07,24,10,51,21.60
2011,07,24,10,52,21.60
2011,07,24,10,53,21.70
2011,07,24,10,54,21.70
2011,07,24,10,55,21.80
2011,07,24,10,56,21.90
2011,07,24,10,57,21.90
2011,07,24,10,58,22.00
2011,07,24,10,59,22.10
2011,07,24,11,00,22.20
2011,07,24,11,01,22.20
2011,07,24,11,02,22.30
2011,07,24,11,03,22.20
2011,07,24,11,04,22.20
2011,07,24,11,05,22.20
2011,07,24,11,06,22.20
2011,07,24,11,07,22.20
2011,07,24,11,08,22.10
2011,07,24,11,09,22.10
2011,07,24,11,10,22.20
2011,07,24,11,11,22.20
2011,07,24,11,12,22.30
2011,07,24,11,13,22.30
2011,07,24,11,14,22.40
2011,07,24,11,15,22.40
2011,07,24,11,16,22.40
2011,07,24,11,17,22.40
2011,07,24,11,18,22.50
2011,07,24,11,19,22.50
2011,07,24,11,20,22.60
2011,07,24,11,21,22.60
2011,07,24,11,22,22.70
2011,07,24,11,23,22.70
2011,07,24,11,24,22.80
2011,07,24,11,25,22.90
2011,07,24,11,26,22.90
2011,07,24,11,27,23.00
2011,07,24,11,28,23.00
2011,07,24,11,29,23.00
2011,07,24,11,30,23.00
2011,07,24,11,31,23.00
2011,07,24,11,32,23.10
2011,07,24,11,33,23.20
2011,07,24,11,34,23.20
2011,07,24,11,35,23.30
2011,07,24,11,36,23.50
2011,07,24,11,37,23.60
2011,07,24,11,38,23.70
2011,07,24,11,39,23.80
2011,07,24,11,40,23.80
2011,07,24,11,41,23.80
2011,07,24,11,42,23.80
2011,07,24,11,43,23.80
2011,07,24,11,44,23.80
2011,07,24,11,45,23.80
2011,07,24,11,46,23.90
2011,07,24,11,47,24.00
2011,07,24,11,48,24.10
2011,07,24,11,49,24.30
2011,07,24,11,50,24.40
2011,07,24,11,51,24.50
2011,07,24,11,52,24.60
2011,07,24,11,53,24.70
2011,07,24,11,54,24.70
2011,07,24,11,55,24.70
2011,07,24,11,56,24.70
2011,07,24,11,57,24.80
2011,07,24,11,58,24.90
2011,07,24,11,59,24.90
2011,07,24,12,00,25.10
2011,07,24,12,01,25.20
2011,07,24,12,02,25.30
2011,07,24,12,03,25.30
2011,07,24,12,04,25.40
2011,07,24,12,05,25.40
2011,07,24,12,06,25.40
2011,07,24,12,07,25.40
2011,07,24,12,08,25.40
2011,07,24,12,09,25.50
2011,07,24,12,10,25.50
2011,07,24,12,11,25.60
2011,07,24,12,12,25.70
2011,07,24,12,13,25.70
2011,07,24,12,14,25.70
2011,07,24,12,15,25.80
2011,07,24,12,16,25.80
2011,07,24,12,17,25.90
2011,07,24,12,18,25.90
2011,07,24,12,19,25.90
2011,07,24,12,20,26.00
2011,07,24,12,21,26.10
2011,07,24,12,22,26.20
2011,07,24,12,23,26.20
2011,07,24,12,24,26.30
2011,07,24,12,25,26.30
2011,07,24,12,26,26.40
2011,07,24,12,27,26.50
2011,07,24,12,28,26.60
2011,07,24,12,29,26.60
2011,07,24,12,30,26.70
2011,07,24,12,31,26.80
2011,07,24,12,32,26.80
2011,07,24,12,33,26.90
2011,07,24,12,34,27.00
2011,07,24,12,35,27.10
2011,07,24,12,36,27.10
2011,07,24,12,37,27.20
2011,07,24,12,38,27.20
2011,07,24,12,39,27.20
2011,07,24,12,40,27.30
2011,07,24,12,41,27.20
2011,07,24,12,42,27.20
2011,07,24,12,43,27.10
2011,07,24,12,44,26.90
2011,07,24,12,45,26.80
2011,07,24,12,46,26.80
2011,07,24,12,47,26.80
2011,07,24,12,48,26.80
2011,07,24,12,49,26.80
2011,07,24,12,50,26.90
2011,07,24,12,51,26.90
2011,07,24,12,52,26.90
2011,07,24,12,53,27.00
2011,07,24,12,54,27.10
2011,07,24,12,55,27.10
2011,07,24,12,56,27.10
2011,07,24,12,57,27.10
2011,07,24,12,58,27.10
2011,07,24,12,59,27.10
2011,07,24,13,00,27.20
2011,07,24,13,01,27.20
2011,07,24,13,02,27.20
2011,07,24,13,03,27.20
2011,07,24,13,04,27.20
2011,07,24,13,05,27.20
2011,07,24,13,06,27.30
2011,07,24,13,07,27.30
2011,07,24,13,08,27.30
2011,07,24,13,09,27.20
2011,07,24,13,10,27.20
2011,07,24,13,11,27.20
2011,07,24,13,12,27.20
2011,07,24,13,13,27.10
2011,07,24,13,14,27.10
2011,07,24,13,15,27.10
2011,07,24,13,16,27.10
2011,07,24,13,17,27.20
2011,07,24,13,18,27.20
2011,07,24,13,19,27.10
2011,07,24,13,20,27.10
2011,07,24,13,21,27.10
2011,07,24,13,22,27.10
2011,07,24,13,23,27.10
2011,07,24,13,24,27.10
2011,07,24,13,25,27.20
2011,07,24,13,26,27.20
2011,07,24,13,27,27.20
2011,07,24,13,28,27.20
2011,07,24,13,29,27.20
2011,07,24,13,30,27.20
2011,07,24,13,31,27.20
2011,07,24,13,32,27.30
2011,07,24,13,33,27.30
2011,07,24,13,34,27.40
2011,07,24,13,35,27.50
2011,07,24,13,36,27.60
2011,07,24,13,37,27.60
2011,07,24,13,38,27.70
2011,07,24,13,39,27.70
2011,07,24,13,40,27.80
2011,07,24,13,41,27.90
2011,07,24,13,42,27.90
2011,07,24,13,43,28.00
2011,07,24,13,44,28.00
2011,07,24,13,45,28.10
2011,07,24,13,46,28.20
2011,07,24,13,47,28.20
2011,07,24,13,48,28.30
2011,07,24,13,49,28.40
2011,07,24,13,50,28.40
2011,07,24,13,51,28.50
2011,07,24,13,52,28.60
2011,07,24,13,53,28.60
2011,07,24,13,54,28.60
2011,07,24,13,55,28.50
2011,07,24,13,56,28.40
2011,07,24,13,57,28.40
2011,07,24,13,58,28.30
2011,07,24,13,59,28.20
2011,07,24,14,00,28.20
2011,07,24,14,01,28.20
2011,07,24,14,02,28.30
2011,07,24,14,03,28.20
2011,07,24,14,04,28.20
2011,07,24,14,05,28.10
2011,07,24,14,06,28.10
2011,07,24,14,07,28.10
2011,07,24,14,08,28.10
2011,07,24,14,09,28.20
2011,07,24,14,10,28.20
2011,07,24,14,11,28.30
2011,07,24,14,12,28.40
2011,07,24,14,13,28.50
2011,07,24,14,14,28.60
2011,07,24,14,15,28.60
2011,07,24,14,16,28.50
2011,07,24,14,17,28.50
2011,07,24,14,18,28.50
2011,07,24,14,19,28.50
2011,07,24,14,20,28.60
2011,07,24,14,21,28.60
2011,07,24,14,22,28.70
2011,07,24,14,23,28.70
2011,07,24,14,24,28.80
2011,07,24,14,25,28.80
2011,07,24,14,26,28.80
2011,07,24,14,27,28.80
2011,07,24,14,28,28.70
2011,07,24,14,29,28.70
2011,07,24,14,30,28.70
2011,07,24,14,31,28.70
2011,07,24,14,32,28.70
2011,07,24,14,33,28.80
2011,07,24,14,34,28.80
2011,07,24,14,35,28.80
2011,07,24,14,36,28.80
2011,07,24,14,37,28.80
2011,07,24,14,38,28.80
2011,07,24,14,39,28.80
2011,07,24,14,40,28.80
2011,07,24,14,41,28.80
2011,07,24,14,42,28.80
2011,07,24,14,43,28.70
2011,07,24,14,44,28.70
2011,07,24,14,45,28.70
2011,07,24,14,46,28.70
2011,07,24,14,47,28.70
2011,07,24,14,48,28.70
2011,07,24,14,49,28.70
2011,07,24,14,50,28.70
2011,07,24,14,51,28.70
2011,07,24,14,52,28.70
2011,07,24,14,53,28.70
2011,07,24,14,54,28.70
2011,07,24,14,55,28.70
2011,07,24,14,56,28.70
2011,07,24,14,57,28.60
2011,07,24,14,58,28.60
2011,07,24,14,59,28.60
2011,07,24,15,00,28.50
2011,07,24,15,01,28.50
2011,07,24,15,02,28.60
2011,07,24,15,03,28.60
2011,07,24,15,04,28.60
2011,07,24,15,05,28.60
2011,07,24,15,06,28.60
2011,07,24,15,07,28.60
2011,07,24,15,08,28.50
2011,07,24,15,09,28.40
2011,07,24,15,10,28.40
2011,07,24,15,11,28.40
2011,07,24,15,12,28.30
2011,07,24,15,13,28.30
2011,07,24,15,14,28.30
2011,07,24,15,15,28.20
2011,07,24,15,16,28.20
2011,07,24,15,17,28.20
2011,07,24,15,18,28.20
2011,07,24,15,19,28.20
2011,07,24,15,20,28.20
2011,07,24,15,21,28.10
2011,07,24,15,22,28.10
2011,07,24,15,23,28.10
2011,07,24,15,24,28.00
2011,07,24,15,25,28.00
2011,07,24,15,26,27.90
2011,07,24,15,27,28.00
2011,07,24,15,28,28.10
2011,07,24,15,29,28.10
2011,07,24,15,30,28.20
2011,07,24,15,31,28.30
2011,07,24,15,32,28.30
2011,07,24,15,33,28.40
2011,07,24,15,34,28.50
2011,07,24,15,35,28.60
2011,07,24,15,36,28.70
2011,07,24,15,37,28.80
2011,07,24,15,38,28.90
2011,07,24,15,39,29.00
2011,07,24,15,40,29.10
2011,07,24,15,41,29.20
2011,07,24,15,42,29.30
2011,07,24,15,43,29.40
2011,07,24,15,44,29.40
2011,07,24,15,45,29.50
2011,07,24,15,46,29.50
2011,07,24,15,47,29.60
2011,07,24,15,48,29.60
2011,07,24,15,49,29.60
2011,07,24,15,50,29.70
2011,07,24,15,51,29.70
2011,07,24,15,52,29.70
2011,07,24,15,53,29.60
2011,07,24,15,54,29.60
2011,07,24,15,55,29.60
2011,07,24,15,56,29.60
2011,07,24,15,57,29.60
2011,07,24,15,58,29.60
2011,07,24,15,59,29.60
2011,07,24,16,00,29.60
2011,07,24,16,01,29.60
2011,07,24,16,02,29.60
2011,07,24,16,03,29.60
2011,07,24,16,04,29.60
2011,07,24,16,05,29.60
2011,07,24,16,06,29.70
2011,07,24,16,07,29.80
2011,07,24,16,08,29.80
2011,07,24,16,09,29.80
2011,07,24,16,10,29.90
2011,07,24,16,11,29.90
2011,07,24,16,12,30.00
2011,07,24,16,13,30.10
2011,07,24,16,14,30.10
2011,07,24,16,15,30.10
2011,07,24,16,16,30.10
2011,07,24,16,17,30.10
2011,07,24,16,18,30.20
2011,07,24,16,19,30.20
2011,07,24,16,20,30.20
2011,07,24,16,21,30.30
2011,07,24,16,22,30.30
2011,07,24,16,23,30.30
2011,07,24,16,24,30.40
2011,07,24,16,25,30.40
2011,07,24,16,26,30.50
2011,07,24,16,27,30.60
2011,07,24,16,28,30.60
2011,07,24,16,29,30.60
2011,07,24,16,30,30.60
2011,07,24,16,31,30.60
2011,07,24,16,32,30.60
2011,07,24,16,33,30.60
2011,07,24,16,34,30.50
2011,07,24,16,35,30.40
2011,07,24,16,36,30.40
2011,07,24,16,37,30.40
2011,07,24,16,38,30.50
2011,07,24,16,39,30.40
2011,07,24,16,40,30.40
2011,07,24,16,41,30.40
2011,07,24,16,42,30.40
2011,07,24,16,43,30.40
2011,07,24,16,44,30.40
2011,07,24,16,45,30.40
2011,07,24,16,46,30.40
2011,07,24,16,47,30.40
2011,07,24,16,48,30.40
2011,07,24,16,49,30.40
2011,07,24,16,50,30.40
2011,07,24,16,51,30.40
2011,07,24,16,52,30.40
2011,07,24,16,53,30.40
2011,07,24,16,54,30.40
2011,07,24,16,55,30.30
2011,07,24,16,56,30.30
2011,07,24,16,57,30.20
2011,07,24,16,58,30.20
2011,07,24,16,59,30.10
2011,07,24,17,00,30.10
2011,07,24,17,01,30.00
2011,07,24,17,02,29.90
2011,07,24,17,03,29.80
2011,07,24,17,04,29.80
2011,07,24,17,05,29.80
2011,07,24,17,06,29.80
2011,07,24,17,07,29.80
2011,07,24,17,08,29.80
2011,07,24,17,09,29.80
2011,07,24,17,10,29.70
2011,07,24,17,11,29.70
2011,07,24,17,12,29.70
2011,07,24,17,13,29.60
2011,07,24,17,14,29.60
2011,07,24,17,15,29.60
2011,07,24,17,16,29.60
2011,07,24,17,17,29.60
2011,07,24,17,18,29.60
2011,07,24,17,19,29.60